LKE9643 ZUTF-ZULS

Flight info

Callsign LKE9643
Flight time 2h 45m
Altitude 34100
Route K0854S1040 MUMGO9C MUMGO B213 LXA DCT
Aircraft B737/M-SDE2E3FGHIRWXY/LB1

Departure

Time 2026-04-14 09:07
Airport Chengdu Tianfu International Airport (ZUTF)

Arrival

Time 2026-04-14 11:52
Airport Lhasa Gonggar International Airport (ZULS)
Time Latitude Longitude Altitude Speed Heading
2026-04-14 08:27 30.31241 104.44722 1459 ft 0 kts 223°
2026-04-14 08:45 30.31242 104.44722 1459 ft 0 kts 223°
2026-04-14 08:46 30.31251 104.44733 1459 ft 2 kts 223°
2026-04-14 08:47 30.31262 104.44745 1459 ft 2 kts 224°
2026-04-14 08:47 30.31273 104.44757 1459 ft 2 kts 223°
2026-04-14 08:47 30.31283 104.44768 1459 ft 0 kts 224°
2026-04-14 08:47 30.31291 104.44776 1459 ft 2 kts 212°
2026-04-14 08:48 30.31305 104.44784 1459 ft 2 kts 195°
2026-04-14 08:48 30.31319 104.44786 1459 ft 2 kts 179°
2026-04-14 08:48 30.31335 104.44784 1459 ft 2 kts 162°
2026-04-14 08:48 30.31347 104.44778 1459 ft 1 kts 147°
2026-04-14 08:49 30.31353 104.44773 1459 ft 1 kts 143°
2026-04-14 08:49 30.31353 104.44772 1459 ft 0 kts 144°
2026-04-14 08:52 30.31336 104.44788 1459 ft 7 kts 140°
2026-04-14 08:52 30.31290 104.44860 1459 ft 14 kts 113°
2026-04-14 08:52 30.31248 104.44977 1459 ft 15 kts 112°
2026-04-14 08:52 30.31236 104.45077 1459 ft 12 kts 50°
2026-04-14 08:53 30.31327 104.45127 1459 ft 16 kts 21°
2026-04-14 08:53 30.31434 104.45177 1459 ft 15 kts 22°
2026-04-14 08:53 30.31477 104.45197 1459 ft 5 kts 22°
2026-04-14 08:53 30.31509 104.45213 1459 ft 4 kts 22°
2026-04-14 08:54 30.31530 104.45222 1459 ft 0 kts 22°
2026-04-14 08:54 30.31532 104.45223 1459 ft 0 kts 22°
2026-04-14 08:55 30.31556 104.45239 1459 ft 8 kts 40°
2026-04-14 08:55 30.31530 104.45313 1459 ft 13 kts 185°
2026-04-14 08:55 30.31431 104.45269 1459 ft 18 kts 202°
2026-04-14 08:55 30.31284 104.45199 1459 ft 24 kts 202°
2026-04-14 08:56 30.31131 104.45126 1459 ft 23 kts 202°
2026-04-14 08:56 30.30982 104.45055 1459 ft 22 kts 203°
2026-04-14 08:56 30.30848 104.44992 1459 ft 19 kts 200°
2026-04-14 08:56 30.30778 104.44958 1459 ft 5 kts 201°
2026-04-14 08:57 30.30737 104.44939 1459 ft 6 kts 202°
2026-04-14 08:57 30.30698 104.44921 1459 ft 6 kts 202°
2026-04-14 08:57 30.30634 104.44890 1459 ft 16 kts 202°
2026-04-14 08:57 30.30485 104.44820 1459 ft 27 kts 202°
2026-04-14 08:58 30.30325 104.44744 1459 ft 23 kts 202°
2026-04-14 08:58 30.30184 104.44678 1459 ft 17 kts 202°
2026-04-14 08:58 30.30134 104.44607 1459 ft 11 kts 288°
2026-04-14 08:58 30.30167 104.44512 1459 ft 14 kts 291°
2026-04-14 08:59 30.30206 104.44401 1459 ft 16 kts 292°
2026-04-14 08:59 30.30252 104.44270 1459 ft 19 kts 292°
2026-04-14 08:59 30.30311 104.44106 1459 ft 23 kts 291°
2026-04-14 08:59 30.30370 104.43938 1459 ft 21 kts 291°
2026-04-14 09:00 30.30427 104.43778 1459 ft 20 kts 291°
2026-04-14 09:00 30.30481 104.43626 1459 ft 20 kts 292°
2026-04-14 09:00 30.30534 104.43473 1459 ft 20 kts 292°
2026-04-14 09:00 30.30588 104.43324 1459 ft 19 kts 292°
2026-04-14 09:01 30.30637 104.43184 1459 ft 18 kts 291°
2026-04-14 09:01 30.30685 104.43047 1459 ft 17 kts 292°
2026-04-14 09:01 30.30730 104.42920 1459 ft 16 kts 288°
2026-04-14 09:01 30.30673 104.42840 1459 ft 14 kts 201°
2026-04-14 09:02 30.30574 104.42793 1459 ft 17 kts 202°
2026-04-14 09:02 30.30450 104.42735 1459 ft 19 kts 201°
2026-04-14 09:02 30.30314 104.42671 1459 ft 24 kts 202°
2026-04-14 09:02 30.30147 104.42593 1459 ft 25 kts 202°
2026-04-14 09:03 30.29984 104.42516 1459 ft 24 kts 201°
2026-04-14 09:03 30.29828 104.42442 1459 ft 23 kts 202°
2026-04-14 09:03 30.29679 104.42373 1459 ft 22 kts 202°
2026-04-14 09:03 30.29533 104.42303 1459 ft 22 kts 201°
2026-04-14 09:04 30.29393 104.42239 1459 ft 21 kts 202°
2026-04-14 09:04 30.29259 104.42175 1459 ft 20 kts 202°
2026-04-14 09:04 30.29129 104.42114 1459 ft 20 kts 202°
2026-04-14 09:04 30.29001 104.42053 1459 ft 17 kts 204°
2026-04-14 09:05 30.28980 104.41964 1459 ft 12 kts 292°
2026-04-14 09:05 30.29011 104.41872 1459 ft 11 kts 292°
2026-04-14 09:05 30.29049 104.41792 1459 ft 11 kts 320°
2026-04-14 09:05 30.29117 104.41783 1459 ft 10 kts 23°
2026-04-14 09:06 30.29134 104.41792 1459 ft 0 kts 22°
2026-04-14 09:06 30.29138 104.41794 1459 ft 3 kts 22°
2026-04-14 09:06 30.29394 104.41914 1460 ft 87 kts 22°
2026-04-14 09:07 30.30250 104.42319 1461 ft 174 kts 21°
2026-04-14 09:07 30.31490 104.42907 1806 ft 204 kts 20°
2026-04-14 09:07 30.32853 104.43552 2260 ft 221 kts 22°
2026-04-14 09:07 30.34278 104.44201 3064 ft 223 kts 19°
2026-04-14 09:08 30.35848 104.44647 3763 ft 242 kts
2026-04-14 09:08 30.37547 104.44556 4581 ft 253 kts 351°
2026-04-14 09:08 30.39274 104.44405 5537 ft 254 kts
2026-04-14 09:08 30.40929 104.45122 6308 ft 255 kts 31°
2026-04-14 09:09 30.42425 104.46207 6907 ft 253 kts 32°
2026-04-14 09:09 30.43930 104.47237 7510 ft 255 kts 30°
2026-04-14 09:09 30.45476 104.48243 8113 ft 256 kts 30°
2026-04-14 09:09 30.47034 104.49246 8702 ft 265 kts 30°
2026-04-14 09:10 30.48702 104.50318 9406 ft 279 kts 30°
2026-04-14 09:10 30.50402 104.51405 10250 ft 287 kts 29°
2026-04-14 09:10 30.52197 104.52550 10904 ft 302 kts 29°
2026-04-14 09:10 30.54094 104.53761 11496 ft 318 kts 28°
2026-04-14 09:11 30.56188 104.54747 11975 ft 336 kts
2026-04-14 09:11 30.58550 104.54626 12492 ft 350 kts 343°
2026-04-14 09:11 30.60675 104.53236 13157 ft 358 kts 316°
2026-04-14 09:11 30.62182 104.50954 14057 ft 359 kts 300°
2026-04-14 09:12 30.63268 104.48347 14966 ft 360 kts 285°
2026-04-14 09:12 30.63452 104.45515 15818 ft 362 kts 262°
2026-04-14 09:12 30.62596 104.42744 16665 ft 366 kts 243°
2026-04-14 09:12 30.61276 104.40215 17437 ft 370 kts 239°
2026-04-14 09:13 30.59889 104.37693 18196 ft 374 kts 240°
2026-04-14 09:13 30.58541 104.35123 19043 ft 374 kts 242°
2026-04-14 09:13 30.57218 104.32484 19463 ft 380 kts 243°
2026-04-14 09:13 30.55925 104.29845 19596 ft 382 kts 243°
2026-04-14 09:14 30.54658 104.27127 20328 ft 383 kts 246°
2026-04-14 09:14 30.53587 104.24261 20833 ft 388 kts 254°
2026-04-14 09:14 30.52973 104.21306 21961 ft 377 kts 262°
2026-04-14 09:14 30.52637 104.18317 22653 ft 378 kts 268°
2026-04-14 09:15 30.52644 104.15296 23278 ft 380 kts 276°
2026-04-14 09:15 30.53091 104.12259 23948 ft 382 kts 283°
2026-04-14 09:15 30.53749 104.09284 24628 ft 383 kts 285°
2026-04-14 09:15 30.54462 104.06310 25251 ft 386 kts 284°
2026-04-14 09:16 30.55187 104.03306 25855 ft 389 kts 285°
2026-04-14 09:16 30.55911 104.00304 26418 ft 392 kts 284°
2026-04-14 09:16 30.56652 103.97218 26984 ft 395 kts 284°
2026-04-14 09:16 30.57387 103.94160 27575 ft 397 kts 284°
2026-04-14 09:17 30.58191 103.91080 27985 ft 403 kts 286°
2026-04-14 09:17 30.59055 103.88020 28606 ft 404 kts 286°
2026-04-14 09:17 30.59942 103.84914 29122 ft 406 kts 286°
2026-04-14 09:17 30.60826 103.81802 29628 ft 409 kts 286°
2026-04-14 09:18 30.61718 103.78641 30079 ft 412 kts 286°
2026-04-14 09:18 30.62606 103.75478 30618 ft 414 kts 285°
2026-04-14 09:18 30.63492 103.72312 31232 ft 412 kts 285°
2026-04-14 09:18 30.64368 103.69176 31916 ft 409 kts 285°
2026-04-14 09:19 30.65197 103.66055 32578 ft 405 kts 284°
2026-04-14 09:19 30.65959 103.62939 33224 ft 402 kts 282°
2026-04-14 09:19 30.66698 103.59838 33763 ft 401 kts 283°
2026-04-14 09:19 30.67442 103.56718 34024 ft 404 kts 283°
2026-04-14 09:20 30.68958 103.50402 34076 ft 402 kts 283°
2026-04-14 09:20 30.70458 103.44174 34133 ft 398 kts 283°
2026-04-14 09:21 30.71934 103.38039 34146 ft 400 kts 283°
2026-04-14 09:21 30.73444 103.31760 34195 ft 400 kts 282°
2026-04-14 09:22 30.74927 103.25573 34278 ft 400 kts 282°
2026-04-14 09:22 30.76423 103.19321 34341 ft 400 kts 283°
2026-04-14 09:23 30.77902 103.13135 34363 ft 400 kts 282°
2026-04-14 09:23 30.79373 103.06924 34407 ft 398 kts 281°
2026-04-14 09:24 30.80343 103.00589 34402 ft 398 kts 273°
2026-04-14 09:24 30.80439 102.94197 34418 ft 395 kts 269°
2026-04-14 09:25 30.80352 102.87801 34454 ft 395 kts 268°
2026-04-14 09:25 30.80247 102.81428 34477 ft 397 kts 268°
2026-04-14 09:26 30.80136 102.75037 34441 ft 396 kts 268°
2026-04-14 09:26 30.80018 102.68618 34452 ft 398 kts 268°
2026-04-14 09:27 30.79896 102.62212 34441 ft 396 kts 268°
2026-04-14 09:27 30.79767 102.55823 34446 ft 397 kts 268°
2026-04-14 09:28 30.79636 102.49439 34426 ft 396 kts 268°
2026-04-14 09:28 30.79502 102.43043 34426 ft 397 kts 269°
2026-04-14 09:29 30.79366 102.36630 34427 ft 397 kts 268°
2026-04-14 09:29 30.79226 102.30208 34429 ft 396 kts 268°
2026-04-14 09:30 30.79084 102.23848 34418 ft 396 kts 268°
2026-04-14 09:30 30.78935 102.17403 34425 ft 399 kts 268°
2026-04-14 09:31 30.78784 102.11005 34423 ft 396 kts 268°
2026-04-14 09:31 30.78629 102.04585 34412 ft 399 kts 268°
2026-04-14 09:32 30.78472 101.98177 34407 ft 400 kts 268°
2026-04-14 09:33 30.78390 101.88520 34420 ft 397 kts 273°
2026-04-14 09:33 30.78916 101.82145 34420 ft 398 kts 275°
2026-04-14 09:34 30.79479 101.75734 34447 ft 397 kts 275°
2026-04-14 09:34 30.80017 101.69371 34447 ft 396 kts 275°
2026-04-14 09:35 30.80549 101.63000 34454 ft 397 kts 274°
2026-04-14 09:35 30.81070 101.56664 34455 ft 396 kts 274°
2026-04-14 09:36 30.81584 101.50346 34468 ft 393 kts 275°
2026-04-14 09:36 30.82097 101.44031 34488 ft 393 kts 274°
2026-04-14 09:37 30.82603 101.37691 34491 ft 393 kts 274°
2026-04-14 09:37 30.83107 101.31377 34488 ft 392 kts 274°
2026-04-14 09:38 30.83612 101.25011 34490 ft 391 kts 274°
2026-04-14 09:38 30.84105 101.18736 34484 ft 389 kts 274°
2026-04-14 09:39 30.84596 101.12476 34493 ft 392 kts 274°
2026-04-14 09:39 30.85086 101.06195 34501 ft 390 kts 274°
2026-04-14 09:40 30.85577 100.99880 34512 ft 393 kts 274°
2026-04-14 09:40 30.86063 100.93556 34519 ft 393 kts 274°
2026-04-14 09:41 30.86545 100.87247 34539 ft 392 kts 274°
2026-04-14 09:41 30.87026 100.80937 34532 ft 395 kts 274°
2026-04-14 09:42 30.87505 100.74567 34548 ft 393 kts 273°
2026-04-14 09:42 30.87978 100.68252 34537 ft 395 kts 274°
2026-04-14 09:43 30.88453 100.61874 34554 ft 397 kts 274°
2026-04-14 09:43 30.88927 100.55461 34572 ft 400 kts 273°
2026-04-14 09:44 30.89401 100.49016 34594 ft 399 kts 273°
2026-04-14 09:44 30.89871 100.42596 34583 ft 402 kts 273°
2026-04-14 09:45 30.90340 100.36111 34612 ft 403 kts 273°
2026-04-14 09:45 30.90809 100.29591 34596 ft 404 kts 273°
2026-04-14 09:46 30.91273 100.23095 34536 ft 406 kts 272°
2026-04-14 09:46 30.91502 100.19831 34694 ft 410 kts 272°
2026-04-14 09:46 30.91737 100.16499 34613 ft 411 kts 272°
2026-04-14 09:47 30.92203 100.09935 34607 ft 405 kts 273°
2026-04-14 09:47 30.92661 100.03346 34625 ft 411 kts 272°
2026-04-14 09:48 30.93138 99.96703 34514 ft 412 kts 273°
2026-04-14 09:48 30.93403 99.93402 34639 ft 410 kts 273°
2026-04-14 09:48 30.93667 99.90144 34613 ft 407 kts 273°
2026-04-14 09:49 30.94197 99.83565 34608 ft 410 kts 273°
2026-04-14 09:49 30.94720 99.76989 34586 ft 406 kts 274°
2026-04-14 09:50 30.95231 99.70429 34578 ft 411 kts 274°
2026-04-14 09:50 30.95741 99.63838 34581 ft 410 kts 274°
2026-04-14 09:51 30.96247 99.57262 34577 ft 408 kts 274°
2026-04-14 09:51 30.96754 99.50644 34577 ft 409 kts 274°
2026-04-14 09:52 30.97252 99.44102 34557 ft 406 kts 274°
2026-04-14 09:52 30.97747 99.37547 34521 ft 407 kts 274°
2026-04-14 09:53 30.98239 99.31003 34546 ft 406 kts 274°
2026-04-14 09:53 30.98724 99.24496 34548 ft 405 kts 274°
2026-04-14 09:54 30.99203 99.18012 34536 ft 404 kts 274°
2026-04-14 09:54 30.99684 99.11462 34509 ft 407 kts 275°
2026-04-14 09:55 31.00163 99.04888 34482 ft 403 kts 275°
2026-04-14 09:55 31.00633 98.98383 34503 ft 405 kts 275°
2026-04-14 09:56 31.01104 98.91839 34486 ft 404 kts 275°
2026-04-14 09:56 31.01568 98.85359 34525 ft 404 kts 275°
2026-04-14 09:57 31.02028 98.78864 34565 ft 402 kts 274°
2026-04-14 09:57 31.02486 98.72375 34565 ft 401 kts 274°
2026-04-14 09:58 31.02937 98.65930 34559 ft 397 kts 274°
2026-04-14 09:58 31.03457 98.59508 34547 ft 399 kts 275°
2026-04-14 09:59 31.04001 98.53119 34558 ft 395 kts 275°
2026-04-14 09:59 31.04535 98.46742 34584 ft 398 kts 275°
2026-04-14 10:00 31.05060 98.40350 34582 ft 398 kts 275°
2026-04-14 10:00 31.05588 98.33931 34593 ft 396 kts 274°
2026-04-14 10:01 31.06104 98.27570 34597 ft 395 kts 274°
2026-04-14 10:01 31.06621 98.21172 34603 ft 394 kts 275°
2026-04-14 10:02 31.07133 98.14802 34591 ft 393 kts 274°
2026-04-14 10:02 31.07639 98.08486 34598 ft 393 kts 275°
2026-04-14 10:03 31.08153 98.02154 34595 ft 391 kts 275°
2026-04-14 10:03 31.08658 97.95869 34602 ft 393 kts 274°
2026-04-14 10:04 31.09162 97.89531 34604 ft 390 kts 275°
2026-04-14 10:04 31.09659 97.83237 34603 ft 393 kts 275°
2026-04-14 10:05 31.10159 97.76874 34598 ft 391 kts 274°
2026-04-14 10:05 31.10656 97.70544 34602 ft 395 kts 274°
2026-04-14 10:06 31.11151 97.64195 34611 ft 394 kts 275°
2026-04-14 10:06 31.11639 97.57851 34601 ft 394 kts 274°
2026-04-14 10:07 31.12126 97.51520 34607 ft 392 kts 274°
2026-04-14 10:07 31.12608 97.45176 34619 ft 392 kts 275°
2026-04-14 10:08 31.13086 97.38875 34611 ft 396 kts 274°
2026-04-14 10:08 31.13567 97.32484 34623 ft 393 kts 274°
2026-04-14 10:09 31.14044 97.26109 34627 ft 397 kts 274°
2026-04-14 10:09 31.14342 97.19736 34621 ft 394 kts 269°
2026-04-14 10:10 31.13677 97.13369 34623 ft 399 kts 259°
2026-04-14 10:10 31.12381 97.07121 34610 ft 396 kts 258°
2026-04-14 10:11 31.11065 97.00919 34597 ft 396 kts 258°
2026-04-14 10:11 31.09731 96.94679 34602 ft 398 kts 258°
2026-04-14 10:12 31.08400 96.88466 34608 ft 396 kts 258°
2026-04-14 10:12 31.07051 96.82208 34611 ft 397 kts 258°
2026-04-14 10:13 31.05715 96.76032 34605 ft 398 kts 258°
2026-04-14 10:13 31.04357 96.69778 34607 ft 397 kts 258°
2026-04-14 10:14 31.03010 96.63583 34610 ft 396 kts 257°
2026-04-14 10:14 31.01656 96.57372 34611 ft 397 kts 258°
2026-04-14 10:15 31.00300 96.51160 34606 ft 395 kts 258°
2026-04-14 10:15 30.98945 96.44969 34604 ft 397 kts 258°
2026-04-14 10:16 30.97600 96.38779 34608 ft 395 kts 258°
2026-04-14 10:16 30.96285 96.32529 34600 ft 395 kts 258°
2026-04-14 10:17 30.94976 96.26330 34603 ft 393 kts 258°
2026-04-14 10:17 30.93671 96.20167 34601 ft 394 kts 258°
2026-04-14 10:18 30.91699 96.10899 34602 ft 393 kts 258°
2026-04-14 10:18 30.90387 96.04755 34605 ft 393 kts 258°
2026-04-14 10:19 30.89065 95.98589 34596 ft 391 kts 258°
2026-04-14 10:19 30.87742 95.92421 34600 ft 394 kts 258°
2026-04-14 10:20 30.86414 95.86254 34592 ft 393 kts 258°
2026-04-14 10:20 30.85086 95.80093 34595 ft 394 kts 258°
2026-04-14 10:21 30.83742 95.73888 34603 ft 395 kts 258°
2026-04-14 10:21 30.82448 95.67699 34591 ft 394 kts 258°
2026-04-14 10:22 30.81181 95.61509 34587 ft 395 kts 258°
2026-04-14 10:22 30.79898 95.55286 34583 ft 394 kts 258°
2026-04-14 10:23 30.78619 95.49108 34584 ft 396 kts 258°
2026-04-14 10:23 30.77327 95.42903 34574 ft 392 kts 259°
2026-04-14 10:24 30.76044 95.36735 34586 ft 397 kts 259°
2026-04-14 10:24 30.74752 95.30537 34584 ft 394 kts 258°
2026-04-14 10:25 30.73451 95.24323 34594 ft 397 kts 257°
2026-04-14 10:25 30.72159 95.18176 34590 ft 394 kts 257°
2026-04-14 10:26 30.70848 95.11943 34570 ft 398 kts 258°
2026-04-14 10:26 30.69528 95.05676 34584 ft 400 kts 258°
2026-04-14 10:27 30.68220 94.99500 34577 ft 394 kts 258°
2026-04-14 10:27 30.66904 94.93287 34582 ft 398 kts 257°
2026-04-14 10:28 30.65582 94.87071 34588 ft 396 kts 257°
2026-04-14 10:28 30.64249 94.80811 34586 ft 399 kts 258°
2026-04-14 10:29 30.62926 94.74641 34597 ft 397 kts 258°
2026-04-14 10:29 30.61590 94.68403 34615 ft 397 kts 258°
2026-04-14 10:30 30.60260 94.62198 34608 ft 398 kts 257°
2026-04-14 10:30 30.58925 94.55982 34612 ft 398 kts 258°
2026-04-14 10:31 30.57587 94.49787 34593 ft 398 kts 258°
2026-04-14 10:31 30.56256 94.43614 34605 ft 397 kts 257°
2026-04-14 10:32 30.54905 94.37394 34613 ft 397 kts 258°
2026-04-14 10:32 30.53546 94.31143 34615 ft 398 kts 257°
2026-04-14 10:33 30.52179 94.24906 34625 ft 398 kts 257°
2026-04-14 10:33 30.50843 94.18787 34638 ft 395 kts 257°
2026-04-14 10:34 30.48905 94.09414 34656 ft 397 kts 258°
2026-04-14 10:35 30.47616 94.03181 34680 ft 398 kts 258°
2026-04-14 10:35 30.46327 93.96991 34691 ft 397 kts 258°
2026-04-14 10:36 30.45033 93.90784 34677 ft 397 kts 258°
2026-04-14 10:36 30.43738 93.84608 34667 ft 397 kts 258°
2026-04-14 10:37 30.42427 93.78361 34675 ft 398 kts 257°
2026-04-14 10:37 30.41120 93.72162 34669 ft 399 kts 258°
2026-04-14 10:38 30.39811 93.65949 34668 ft 399 kts 258°
2026-04-14 10:38 30.38316 93.59804 34660 ft 400 kts 252°
2026-04-14 10:39 30.36063 93.53875 34663 ft 401 kts 248°
2026-04-14 10:39 30.33703 93.48061 34661 ft 400 kts 248°
2026-04-14 10:40 30.31343 93.42237 34655 ft 399 kts 248°
2026-04-14 10:40 30.28980 93.36414 34676 ft 401 kts 248°
2026-04-14 10:41 30.26627 93.30633 34684 ft 401 kts 248°
2026-04-14 10:41 30.24254 93.24812 34691 ft 399 kts 248°
2026-04-14 10:42 30.21889 93.19020 34698 ft 399 kts 248°
2026-04-14 10:42 30.19520 93.13225 34696 ft 399 kts 247°
2026-04-14 10:43 30.17149 93.07437 34704 ft 399 kts 248°
2026-04-14 10:43 30.14776 93.01660 34720 ft 398 kts 248°
2026-04-14 10:44 30.12402 92.95879 34722 ft 398 kts 248°
2026-04-14 10:44 30.10025 92.90104 34712 ft 399 kts 248°
2026-04-14 10:45 30.07655 92.84362 34706 ft 398 kts 247°
2026-04-14 10:45 30.05262 92.78566 34704 ft 402 kts 247°
2026-04-14 10:46 30.02881 92.72807 34703 ft 397 kts 248°
2026-04-14 10:46 30.00502 92.67059 34708 ft 400 kts 247°
2026-04-14 10:47 29.98101 92.61266 34706 ft 401 kts 247°
2026-04-14 10:47 29.95704 92.55509 34702 ft 399 kts 248°
2026-04-14 10:48 29.93301 92.49732 34703 ft 403 kts 248°
2026-04-14 10:48 29.90894 92.43955 34691 ft 397 kts 247°
2026-04-14 10:49 29.88477 92.38155 34686 ft 405 kts 247°
2026-04-14 10:49 29.86043 92.32336 34684 ft 402 kts 247°
2026-04-14 10:50 29.83615 92.26535 34536 ft 404 kts 246°
2026-04-14 10:50 29.82392 92.23616 34269 ft 403 kts 247°
2026-04-14 10:50 29.81179 92.20724 34008 ft 405 kts 246°
2026-04-14 10:50 29.79960 92.17819 33741 ft 409 kts 247°
2026-04-14 10:51 29.78711 92.14843 33470 ft 412 kts 247°
2026-04-14 10:51 29.77469 92.11889 33207 ft 412 kts 247°
2026-04-14 10:51 29.76215 92.08912 32932 ft 413 kts 246°
2026-04-14 10:51 29.74964 92.05941 32664 ft 414 kts 247°
2026-04-14 10:52 29.73715 92.02980 32393 ft 414 kts 246°
2026-04-14 10:52 29.72445 91.99970 32113 ft 417 kts 247°
2026-04-14 10:52 29.71169 91.96947 31840 ft 419 kts 247°
2026-04-14 10:52 29.69905 91.93952 31577 ft 420 kts 246°
2026-04-14 10:53 29.68641 91.90964 31308 ft 419 kts 246°
2026-04-14 10:53 29.67353 91.87920 31033 ft 419 kts 246°
2026-04-14 10:53 29.66077 91.84905 30763 ft 422 kts 247°
2026-04-14 10:53 29.64801 91.81895 30494 ft 423 kts 246°
2026-04-14 10:54 29.63508 91.78845 30229 ft 423 kts 247°
2026-04-14 10:54 29.62231 91.75833 29962 ft 424 kts 246°
2026-04-14 10:54 29.60934 91.72774 29695 ft 425 kts 246°
2026-04-14 10:54 29.59643 91.69740 29425 ft 427 kts 247°
2026-04-14 10:55 29.58330 91.66657 29160 ft 423 kts 247°
2026-04-14 10:55 29.57054 91.63669 28895 ft 411 kts 246°
2026-04-14 10:55 29.55821 91.60781 28630 ft 401 kts 247°
2026-04-14 10:55 29.54607 91.57935 28364 ft 392 kts 247°
2026-04-14 10:56 29.53430 91.55173 28102 ft 386 kts 247°
2026-04-14 10:56 29.52240 91.52385 27839 ft 386 kts 247°
2026-04-14 10:56 29.51068 91.49639 27580 ft 389 kts 246°
2026-04-14 10:56 29.49874 91.46840 27323 ft 391 kts 247°
2026-04-14 10:57 29.48686 91.44061 27061 ft 387 kts 247°
2026-04-14 10:57 29.47504 91.41299 26795 ft 383 kts 247°
2026-04-14 10:57 29.46329 91.38553 26534 ft 384 kts 247°
2026-04-14 10:57 29.45160 91.35825 26274 ft 384 kts 246°
2026-04-14 10:58 29.43966 91.33042 26007 ft 385 kts 246°
2026-04-14 10:58 29.42792 91.30321 25750 ft 382 kts 246°
2026-04-14 10:58 29.41608 91.27573 25485 ft 383 kts 247°
2026-04-14 10:58 29.40437 91.24846 25231 ft 383 kts 247°
2026-04-14 10:59 29.39273 91.22138 24971 ft 379 kts 247°
2026-04-14 10:59 29.38098 91.19407 24716 ft 378 kts 246°
2026-04-14 10:59 29.36940 91.16718 24502 ft 376 kts 246°
2026-04-14 10:59 29.35802 91.14086 24481 ft 360 kts 246°
2026-04-14 11:00 29.34716 91.11575 24485 ft 344 kts 246°
2026-04-14 11:00 29.33680 91.09200 24487 ft 329 kts 245°
2026-04-14 11:00 29.32483 91.06997 24485 ft 318 kts 235°
2026-04-14 11:00 29.30900 91.05313 24490 ft 311 kts 218°
2026-04-14 11:01 29.28991 91.04176 24487 ft 303 kts 208°
2026-04-14 11:01 29.27016 91.03451 24483 ft 297 kts 195°
2026-04-14 11:01 29.24960 91.03399 24491 ft 296 kts 179°
2026-04-14 11:01 29.22928 91.03830 24490 ft 302 kts 170°
2026-04-14 11:02 29.20946 91.04769 24489 ft 313 kts 152°
2026-04-14 11:02 29.19270 91.06368 24488 ft 319 kts 136°
2026-04-14 11:02 29.17841 91.08334 24490 ft 323 kts 125°
2026-04-14 11:02 29.16911 91.10670 24489 ft 324 kts 103°
2026-04-14 11:03 29.16602 91.13187 24493 ft 323 kts 92°
2026-04-14 11:03 29.16679 91.15771 24487 ft 321 kts 76°
2026-04-14 11:03 29.17403 91.18134 24483 ft 315 kts 56°
2026-04-14 11:03 29.18568 91.20222 24310 ft 308 kts 50°
2026-04-14 11:04 29.19782 91.22262 23870 ft 313 kts 51°
2026-04-14 11:04 29.20983 91.24332 23600 ft 311 kts 52°
2026-04-14 11:04 29.22172 91.26387 23349 ft 308 kts 51°
2026-04-14 11:04 29.23192 91.28544 23010 ft 314 kts 69°
2026-04-14 11:05 29.23572 91.31023 22696 ft 317 kts 85°
2026-04-14 11:05 29.23537 91.33527 22416 ft 316 kts 92°
2026-04-14 11:05 29.23313 91.36005 22169 ft 314 kts 96°
2026-04-14 11:05 29.23010 91.38491 21885 ft 312 kts 94°
2026-04-14 11:06 29.23123 91.40923 21532 ft 310 kts 73°
2026-04-14 11:06 29.23751 91.43265 21247 ft 306 kts 68°
2026-04-14 11:06 29.24519 91.45503 21001 ft 300 kts 58°
2026-04-14 11:06 29.25732 91.47407 20669 ft 292 kts 38°
2026-04-14 11:07 29.27263 91.48869 20402 ft 288 kts 32°
2026-04-14 11:07 29.28929 91.50154 20086 ft 284 kts 21°
2026-04-14 11:07 29.30744 91.50850 19836 ft 275 kts
2026-04-14 11:07 29.32630 91.51205 19626 ft 271 kts
2026-04-14 11:08 29.34469 91.51209 19580 ft 261 kts 346°
2026-04-14 11:08 29.36235 91.50728 19610 ft 258 kts 338°
2026-04-14 11:08 29.37929 91.50021 19639 ft 257 kts 329°
2026-04-14 11:08 29.39429 91.48920 19679 ft 254 kts 317°
2026-04-14 11:09 29.40717 91.47591 19716 ft 251 kts 311°
2026-04-14 11:09 29.41829 91.46052 19753 ft 250 kts 300°
2026-04-14 11:09 29.42620 91.44292 19783 ft 247 kts 292°
2026-04-14 11:10 29.43485 91.40492 19846 ft 246 kts 272°
2026-04-14 11:10 29.43460 91.38523 19867 ft 249 kts 266°
2026-04-14 11:10 29.43192 91.36562 19880 ft 250 kts 256°
2026-04-14 11:10 29.42572 91.34697 19885 ft 250 kts 247°
2026-04-14 11:11 29.41731 91.32935 19888 ft 253 kts 239°
2026-04-14 11:11 29.40636 91.31407 19882 ft 246 kts 228°
2026-04-14 11:11 29.39398 91.30115 19867 ft 231 kts 228°
2026-04-14 11:11 29.38278 91.28864 19851 ft 220 kts 230°
2026-04-14 11:12 29.37191 91.27635 19714 ft 227 kts 229°
2026-04-14 11:12 29.36048 91.26354 19542 ft 226 kts 228°
2026-04-14 11:12 29.34940 91.25135 19536 ft 212 kts 229°
2026-04-14 11:12 29.33902 91.23989 19529 ft 206 kts 229°
2026-04-14 11:13 29.32894 91.22800 19532 ft 211 kts 233°
2026-04-14 11:13 29.31916 91.21491 19535 ft 220 kts 237°
2026-04-14 11:13 29.31182 91.19954 19538 ft 222 kts 251°
2026-04-14 11:13 29.30789 91.18263 19544 ft 217 kts 264°
2026-04-14 11:14 29.30656 91.16554 19549 ft 215 kts 266°
2026-04-14 11:14 29.30547 91.14847 19549 ft 218 kts 267°
2026-04-14 11:14 29.30455 91.13112 19546 ft 218 kts 267°
2026-04-14 11:14 29.30357 91.11385 19548 ft 217 kts 266°
2026-04-14 11:15 29.30253 91.09674 19548 ft 215 kts 266°
2026-04-14 11:15 29.30151 91.07954 19553 ft 216 kts 266°
2026-04-14 11:15 29.30050 91.06228 19565 ft 218 kts 266°
2026-04-14 11:15 29.29944 91.04487 19560 ft 219 kts 266°
2026-04-14 11:16 29.29841 91.02753 19559 ft 216 kts 266°
2026-04-14 11:16 29.29737 91.01058 19558 ft 215 kts 266°
2026-04-14 11:16 29.29687 90.99335 19559 ft 217 kts 272°
2026-04-14 11:16 29.29812 90.97596 19566 ft 215 kts 275°
2026-04-14 11:17 29.29953 90.95893 19578 ft 215 kts 275°
2026-04-14 11:17 29.30079 90.94205 19582 ft 214 kts 275°
2026-04-14 11:17 29.30044 90.92499 19577 ft 216 kts 254°
2026-04-14 11:17 29.29173 90.91098 19583 ft 226 kts 221°
2026-04-14 11:18 29.27772 90.90221 19581 ft 230 kts 208°
2026-04-14 11:18 29.26185 90.89928 19576 ft 242 kts 176°
2026-04-14 11:18 29.24634 90.90774 19430 ft 255 kts 138°
2026-04-14 11:18 29.23606 90.92454 19397 ft 268 kts 126°
2026-04-14 11:19 29.22301 90.93990 19375 ft 272 kts 155°
2026-04-14 11:19 29.20522 90.94475 19380 ft 257 kts 191°
2026-04-14 11:19 29.18961 90.93736 19375 ft 240 kts 226°
2026-04-14 11:19 29.18042 90.92199 19378 ft 234 kts 246°
2026-04-14 11:20 29.17428 90.90466 19375 ft 237 kts 254°
2026-04-14 11:20 29.17131 90.88600 19367 ft 236 kts 268°
2026-04-14 11:20 29.17291 90.86764 19365 ft 233 kts 279°
2026-04-14 11:20 29.17665 90.84955 19370 ft 232 kts 282°
2026-04-14 11:21 29.18062 90.83187 19370 ft 233 kts 282°
2026-04-14 11:21 29.18470 90.81379 19379 ft 236 kts 283°
2026-04-14 11:21 29.18884 90.79566 19386 ft 234 kts 282°
2026-04-14 11:21 29.19298 90.77769 19380 ft 234 kts 283°
2026-04-14 11:22 29.19715 90.75957 19375 ft 234 kts 283°
2026-04-14 11:22 29.20131 90.74151 19371 ft 235 kts 282°
2026-04-14 11:22 29.20547 90.72352 19362 ft 233 kts 283°
2026-04-14 11:22 29.20958 90.70567 19368 ft 233 kts 283°
2026-04-14 11:23 29.21372 90.68765 19372 ft 237 kts 283°
2026-04-14 11:23 29.21793 90.66938 19380 ft 234 kts 283°
2026-04-14 11:23 29.22206 90.65146 19390 ft 234 kts 283°
2026-04-14 11:23 29.22622 90.63330 19389 ft 235 kts 283°
2026-04-14 11:24 29.23034 90.61540 19386 ft 233 kts 283°
2026-04-14 11:24 29.23449 90.59734 19387 ft 234 kts 283°
2026-04-14 11:24 29.23862 90.57938 19392 ft 235 kts 283°
2026-04-14 11:24 29.24278 90.56135 19399 ft 233 kts 283°
2026-04-14 11:25 29.24690 90.54330 19401 ft 235 kts 283°
2026-04-14 11:25 29.25101 90.52534 19409 ft 234 kts 283°
2026-04-14 11:25 29.25510 90.50746 19408 ft 234 kts 283°
2026-04-14 11:25 29.25926 90.48934 19425 ft 233 kts 283°
2026-04-14 11:26 29.26338 90.47128 19456 ft 241 kts 283°
2026-04-14 11:26 29.26771 90.45225 19476 ft 249 kts 283°
2026-04-14 11:26 29.27205 90.43330 19488 ft 248 kts 283°
2026-04-14 11:26 29.27641 90.41429 19487 ft 246 kts 283°
2026-04-14 11:27 29.28073 90.39526 19479 ft 246 kts 283°
2026-04-14 11:27 29.28507 90.37618 19475 ft 247 kts 283°
2026-04-14 11:27 29.28937 90.35733 19478 ft 246 kts 283°
2026-04-14 11:27 29.29398 90.33833 19470 ft 247 kts 289°
2026-04-14 11:28 29.30431 90.32252 19479 ft 257 kts 320°
2026-04-14 11:28 29.32113 90.31488 19477 ft 270 kts 342°
2026-04-14 11:28 29.34057 90.31332 19463 ft 295 kts
2026-04-14 11:28 29.36035 90.32223 19472 ft 317 kts 32°
2026-04-14 11:29 29.37452 90.34172 19486 ft 326 kts 62°
2026-04-14 11:29 29.37966 90.36695 19497 ft 325 kts 83°
2026-04-14 11:29 29.38115 90.39239 19494 ft 325 kts 94°
2026-04-14 11:29 29.37542 90.41753 19488 ft 325 kts 114°
2026-04-14 11:30 29.36705 90.44116 19458 ft 319 kts 111°
2026-04-14 11:30 29.36078 90.46514 19431 ft 305 kts 103°
2026-04-14 11:30 29.35661 90.48814 19426 ft 292 kts 102°
2026-04-14 11:30 29.35306 90.51116 19431 ft 291 kts 100°
2026-04-14 11:31 29.34964 90.53419 19429 ft 300 kts 100°
2026-04-14 11:31 29.34626 90.55797 19407 ft 300 kts 100°
2026-04-14 11:31 29.34301 90.58148 19423 ft 297 kts 99°
2026-04-14 11:31 29.33983 90.60471 19414 ft 298 kts 99°
2026-04-14 11:32 29.33664 90.62803 19403 ft 297 kts 99°
2026-04-14 11:32 29.33344 90.65140 19406 ft 296 kts 100°
2026-04-14 11:32 29.33027 90.67477 19410 ft 300 kts 100°
2026-04-14 11:32 29.32591 90.69774 19398 ft 296 kts 109°
2026-04-14 11:33 29.31951 90.72023 19383 ft 293 kts 110°
2026-04-14 11:33 29.31334 90.74190 19369 ft 279 kts 110°
2026-04-14 11:33 29.30753 90.76266 19284 ft 268 kts 110°
2026-04-14 11:34 29.29635 90.80290 18717 ft 266 kts 110°
2026-04-14 11:34 29.29091 90.82313 18417 ft 266 kts 103°
2026-04-14 11:34 29.28962 90.84403 18379 ft 260 kts 91°
2026-04-14 11:34 29.28972 90.86484 18384 ft 266 kts 90°
2026-04-14 11:35 29.28960 90.88623 18378 ft 270 kts 91°
2026-04-14 11:35 29.28944 90.90758 18382 ft 268 kts 91°
2026-04-14 11:35 29.28932 90.92870 18388 ft 266 kts 91°
2026-04-14 11:35 29.28916 90.95008 18385 ft 266 kts 91°
2026-04-14 11:36 29.28906 90.97124 18382 ft 269 kts 91°
2026-04-14 11:36 29.28897 90.99272 18367 ft 269 kts 90°
2026-04-14 11:36 29.28908 91.01382 18359 ft 258 kts 89°
2026-04-14 11:36 29.28944 91.03385 18356 ft 247 kts 83°
2026-04-14 11:37 29.29419 91.05218 18365 ft 236 kts 65°
2026-04-14 11:37 29.29954 91.06986 18362 ft 233 kts 77°
2026-04-14 11:37 29.30167 91.08819 18377 ft 237 kts 87°
2026-04-14 11:37 29.30243 91.10744 18363 ft 241 kts 89°
2026-04-14 11:38 29.30293 91.12645 18363 ft 237 kts 88°
2026-04-14 11:38 29.30342 91.14500 18362 ft 234 kts 88°
2026-04-14 11:38 29.30379 91.16358 18368 ft 236 kts 88°
2026-04-14 11:38 29.30414 91.18247 18362 ft 237 kts 89°
2026-04-14 11:39 29.30451 91.20123 18356 ft 234 kts 89°
2026-04-14 11:39 29.30487 91.21980 18357 ft 236 kts 89°
2026-04-14 11:39 29.30521 91.23873 18356 ft 237 kts 89°
2026-04-14 11:39 29.30554 91.25749 18351 ft 234 kts 88°
2026-04-14 11:40 29.30592 91.27608 18347 ft 233 kts 88°
2026-04-14 11:40 29.30626 91.29465 18342 ft 232 kts 89°
2026-04-14 11:40 29.30659 91.31334 18338 ft 237 kts 89°
2026-04-14 11:40 29.30708 91.33208 18328 ft 236 kts 83°
2026-04-14 11:41 29.31137 91.34979 18332 ft 230 kts 57°
2026-04-14 11:41 29.32140 91.36386 18354 ft 227 kts 36°
2026-04-14 11:41 29.33440 91.37354 18356 ft 221 kts 16°
2026-04-14 11:41 29.34918 91.37661 18359 ft 210 kts 352°
2026-04-14 11:42 29.36331 91.37442 18359 ft 204 kts 338°
2026-04-14 11:42 29.37575 91.36744 18363 ft 197 kts 316°
2026-04-14 11:42 29.38512 91.35644 18365 ft 191 kts 303°
2026-04-14 11:42 29.39154 91.34321 18362 ft 190 kts 285°
2026-04-14 11:43 29.39351 91.32821 18368 ft 190 kts 271°
2026-04-14 11:43 29.39309 91.31329 18357 ft 186 kts 258°
2026-04-14 11:43 29.38671 91.30051 18355 ft 194 kts 224°
2026-04-14 11:43 29.37549 91.29131 18354 ft 199 kts 219°
2026-04-14 11:44 29.36315 91.28429 18342 ft 202 kts 196°
2026-04-14 11:44 29.34897 91.28276 18349 ft 208 kts 189°
2026-04-14 11:44 29.33449 91.28189 18318 ft 208 kts 189°
2026-04-14 11:44 29.32007 91.28082 18214 ft 203 kts 190°
2026-04-14 11:45 29.30577 91.27938 17803 ft 208 kts 197°
2026-04-14 11:45 29.29361 91.27190 17495 ft 197 kts 231°
2026-04-14 11:45 29.28828 91.25819 17334 ft 186 kts 266°
2026-04-14 11:45 29.28982 91.24360 17064 ft 187 kts 278°
2026-04-14 11:46 29.29189 91.22896 16784 ft 187 kts 277°
2026-04-14 11:46 29.29404 91.21435 16547 ft 185 kts 277°
2026-04-14 11:46 29.29629 91.19991 16305 ft 183 kts 277°
2026-04-14 11:46 29.29844 91.18552 16064 ft 182 kts 277°
2026-04-14 11:47 29.30035 91.17126 15828 ft 179 kts 276°
2026-04-14 11:47 29.30182 91.15726 15596 ft 177 kts 274°
2026-04-14 11:47 29.30283 91.14324 15363 ft 176 kts 272°
2026-04-14 11:47 29.30364 91.12936 15133 ft 174 kts 272°
2026-04-14 11:48 29.30414 91.11576 14913 ft 171 kts 268°
2026-04-14 11:48 29.30405 91.10219 14690 ft 170 kts 267°
2026-04-14 11:48 29.30395 91.08851 14463 ft 170 kts 267°
2026-04-14 11:48 29.30380 91.07569 14252 ft 159 kts 266°
2026-04-14 11:49 29.30364 91.06338 14050 ft 148 kts 266°
2026-04-14 11:49 29.30348 91.05182 13876 ft 146 kts 267°
2026-04-14 11:49 29.30331 91.04005 13688 ft 150 kts 267°
2026-04-14 11:49 29.30319 91.02818 13488 ft 147 kts 268°
2026-04-14 11:50 29.30296 91.01641 13308 ft 149 kts 266°
2026-04-14 11:50 29.30278 91.00453 13116 ft 151 kts 268°
2026-04-14 11:50 29.30261 90.99272 12928 ft 147 kts 267°
2026-04-14 11:51 29.30237 90.96942 12617 ft 147 kts 265°
2026-04-14 11:51 29.30212 90.95770 12494 ft 153 kts 267°
2026-04-14 11:51 29.30198 90.94553 12230 ft 155 kts 266°
2026-04-14 11:51 29.30183 90.93330 11992 ft 150 kts 266°
2026-04-14 11:52 29.30165 90.92208 11911 ft 118 kts 269°
2026-04-14 11:52 29.30154 90.91516 11913 ft 64 kts 270°
2026-04-14 11:52 29.30145 90.90992 11914 ft 65 kts 269°
2026-04-14 11:52 29.30138 90.90498 11918 ft 49 kts 269°
2026-04-14 11:53 29.30110 90.90214 11919 ft 36 kts 255°
2026-04-14 11:53 29.30016 90.90021 11919 ft 22 kts 204°
2026-04-14 11:53 29.29974 90.89893 11919 ft 21 kts 268°
2026-04-14 11:53 29.29970 90.89687 11919 ft 30 kts 269°
2026-04-14 11:54 29.29967 90.89480 11922 ft 28 kts 269°
2026-04-14 11:54 29.29963 90.89286 11923 ft 26 kts 268°
2026-04-14 11:54 29.29900 90.89187 11923 ft 20 kts 174°
2026-04-14 11:54 29.29746 90.89191 11923 ft 21 kts 179°
2026-04-14 11:55 29.29571 90.89196 11923 ft 19 kts 179°
2026-04-14 11:55 29.29496 90.89198 11925 ft 12 kts 175°
2026-04-14 11:55 29.29438 90.89239 11925 ft 11 kts 135°
2026-04-14 11:55 29.29392 90.89287 11925 ft 5 kts 139°
2026-04-14 11:56 29.29388 90.89290 11925 ft 0 kts 139°
2026-04-14 11:56 29.29387 90.89291 11925 ft 0 kts 139°